Mexico City Airport, Mexico

2:19 AM CDT on September 21, 2017 (GMT -0500)
Lic Benito Juarez International

Weather History for MMMX - February, 2011

Change the Weather History Date:

Tuesday, February 1, 2011

  Actual Average Record
Temperature  
Mean Temperature 64 °F -  
Max Temperature 77 °F 72 °F 80 °F (2007)
Min Temperature 51 °F 43 °F 39 °F (2003)
Degree Days  
Heating Degree Days 1    
Growing Degree Days 14 (Base 50)    
Moisture  
Dew Point 32 °F    
Average Humidity 33    
Maximum Humidity 54    
Minimum Humidity 13    
Precipitation  
Precipitation 0.00 in - - ()
Sea Level Pressure  
Sea Level Pressure 30.10 in    
Wind  
Wind Speed 6 mph ()    
Max Wind Speed 16 mph    
Max Gust Speed 34 mph    
Visibility 13.0 miles    
Events      
Averages and records for this station are not official NWS values.
T = Trace of Precipitation, MM = Missing Value Source: Averaged Metar Reports

Daily Weather History Graph

Daily Weather History Graph

Search for Another Location

Airport or City:

Trip Planner

Search our weather history database for the weather conditions in past years. The results will help you decide how hot, cold, wet, or windy it might be!

Date:

Astronomy

Feb. 01, 2011 Rise Set
Actual Time 7:11 AM CST 6:29 PM CST
Civil Twilight 6:48 AM CST 6:51 PM CST
Nautical Twilight 6:21 AM CST 7:18 PM CST
Astronomical Twilight 5:55 AM CST 7:44 PM CST
Moon 6:02 AM CST (2/1) 5:29 PM CST (2/1)
Length of Visible Light 12h 03m
Length of Day
11h 17m
Waning Crescent, 2% of the Moon is Illuminated
Feb 1
Waning Crescent
Feb 2
New
Feb 11
First Quarter
Feb 18
Full
Feb 24
Last Quarter

Hourly Weather History & Observations

Time (CST) Temp. Dew Point Humidity Pressure Visibility Wind Dir Wind Speed Gust Speed Precip Events Conditions
12:45 AM 59.0 °F 35.6 °F 42% 30.26 in 15.0 mi SSE 13.8 mph - N/A   Clear
1:45 AM 57.2 °F 35.6 °F 44% 30.25 in 15.0 mi Calm Calm - N/A   Clear
1:47 AM 57.2 °F 35.6 °F 44% 30.25 in 15.0 mi SE 5.8 mph - N/A   Clear
2:45 AM 53.6 °F 35.6 °F 51% 29.69 in 15.0 mi NNE 5.8 mph - N/A   Clear
3:45 AM 55.4 °F 35.6 °F 47% 30.22 in 15.0 mi SSE 4.6 mph - N/A   Clear
4:45 AM 53.6 °F 35.6 °F 51% 30.22 in 15.0 mi SE 9.2 mph - N/A   Clear
5:45 AM 51.8 °F 35.6 °F 54% 29.76 in 15.0 mi Calm Calm - N/A   Clear
6:25 AM 51.8 °F 35.6 °F 54% 30.23 in 15.0 mi SW 4.6 mph - N/A   Clear
6:45 AM 53.6 °F 35.6 °F 51% 30.23 in 15.0 mi WSW 4.6 mph - N/A   Clear
7:20 AM 53.6 °F 35.6 °F 51% 30.24 in 15.0 mi SW 3.5 mph - N/A   Clear
7:41 AM 55.4 °F 33.8 °F 44% 30.25 in 15.0 mi Calm Calm - N/A   Clear
8:23 AM 57.2 °F 33.8 °F 41% 30.27 in 15.0 mi Calm Calm - N/A   Clear
8:45 AM 60.8 °F 33.8 °F 36% 29.76 in 15.0 mi Calm Calm - N/A   Partly Cloudy
9:25 AM 64.4 °F 32.0 °F 30% 30.28 in 15.0 mi SE 4.6 mph - N/A   Partly Cloudy
9:47 AM 66.2 °F 32.0 °F 28% 30.28 in 15.0 mi SSW 4.6 mph - N/A   Partly Cloudy
10:33 AM 69.8 °F 28.4 °F 21% 30.27 in 15.0 mi SE 5.8 mph - N/A   Partly Cloudy
10:47 AM 71.6 °F 28.4 °F 20% 30.27 in 15.0 mi SE 6.9 mph - N/A   Partly Cloudy
11:46 AM 73.4 °F 26.6 °F 18% 29.75 in 15.0 mi West 8.1 mph - N/A   Partly Cloudy
12:46 PM 75.2 °F 23.0 °F 14% 30.20 in 15.0 mi SE 3.5 mph - N/A   Scattered Clouds
1:44 PM 77.0 °F 23.0 °F 13% 30.17 in 15.0 mi SSE 8.1 mph - N/A   Mostly Cloudy
2:48 PM 77.0 °F 24.8 °F 14% 29.58 in 10.0 mi ENE 13.8 mph 26.5 mph N/A   Mostly Cloudy
3:44 PM 75.2 °F 23.0 °F 14% 30.13 in 10.0 mi East 10.4 mph 23.0 mph N/A   Mostly Cloudy
4:44 PM 75.2 °F 26.6 °F 17% 30.13 in 10.0 mi ESE 11.5 mph 23.0 mph N/A   Mostly Cloudy
5:18 PM 71.6 °F 28.4 °F 20% 30.14 in 10.0 mi East 11.5 mph 23.0 mph N/A   Mostly Cloudy
5:49 PM 71.6 °F 30.2 °F 22% 29.72 in 10.0 mi ESE 10.4 mph 21.9 mph N/A   Mostly Cloudy
6:22 PM 68.0 °F 32.0 °F 26% 30.16 in 10.0 mi SE 11.5 mph 23.0 mph N/A   Mostly Cloudy
6:46 PM 66.2 °F 33.8 °F 30% 30.18 in 8.0 mi SE 16.1 mph - N/A   Mostly Cloudy
7:11 PM 66.2 °F 33.8 °F 30% 30.19 in 8.0 mi SSE 16.1 mph 34.5 mph N/A   Scattered Clouds
7:44 PM 64.4 °F 33.8 °F 32% 30.21 in 8.0 mi SSE 11.5 mph 23.0 mph N/A   Scattered Clouds
8:43 PM 62.6 °F 33.8 °F 34% 29.71 in 8.0 mi SSE 13.8 mph - N/A   Scattered Clouds
9:51 PM 62.6 °F 33.8 °F 34% 30.25 in 12.0 mi SSE 6.9 mph - N/A   Clear
10:48 PM 60.8 °F 33.8 °F 36% 30.25 in 12.0 mi SE 4.6 mph - N/A   Clear
11:45 PM 59.0 °F 32.0 °F 36% 29.76 in 12.0 mi SSE 4.6 mph - N/A   Clear